sat.trackr.live / text

‹ back to catalog

STARLINK-30547

NORAD 58044 · 2023-156S

PAYLOAD ACTIVE UNKNOWN

§ Identity

Operator
Country
US
Launch date
2023-10-09
Launch site
AFWTR
Launch vehicle
Mass (kg)
RCS (m²)

Purposes: comms

External: N2YO · Heavens-Above · Gunter

§ Orbital elements

Epoch: 2026-05-24T21:44:20.281056Z

Period
93.87 min
Inclination
53.1611°
Eccentricity
0.0001051
Mean motion
15.34069090 rev/d
Perigee alt
463.0 km
Apogee alt
464.4 km
Semi-major
6,841.8 km
B*
1.6327e-3
RAAN
173.9967°
Arg perigee
84.3531°
Mean anomaly
275.7591°
Rev number
14,670

§ Raw data

STARLINK-305471 58044U 23156S   26144.90579029  .00054612  00000+0  16327-2 0  99942 58044  53.1611 173.9967 0001051  84.3531 275.7591 15.34069090146704

JSON: /api/v1/satellites/58044 · /tle

For live sub-satellite position, see the globe view (requires WebGL).

§ Visibility from observer

Set your observer location to see the next 7 days of passes ≥ 10°. The values pass through the URL so the page stays shareable.

No JS? Fill the form by hand. The geolocation button needs JavaScript.